#timestamp,LO_Frequency,Hit,StdDev 
1673089215.7,286047002.2,N
1673089235.6,286047000.1,N
1673089255.4,286046999.7,N
1673089275.2,286047000.2,N
1673089295.1,286047002.0,N
1673089296.0,286047002.0,N
1673089315.8,286047002.1,N
1673089335.6,286047001.3,N
1673089355.5,286047003.7,Y
1673089375.3,286047001.6,P
1673089395.1,286047004.4,P
1673089415.9,286047002.6,N
1673089435.7,286047001.6,N
1673089455.5,286047001.3,N
1673089475.4,286047004.0,Y
1673089495.2,286047000.0,P
1673089515.0,286047000.3,N
1673089515.9,286047000.3,N
1673089535.8,286047000.7,N
1673089555.6,286047000.4,N
1673089575.4,286046999.8,N
1673089595.3,286047002.3,Y
1673089615.1,286046999.8,P
1673089635.8,286047000.0,N
1673089655.7,286046998.9,P
1673089675.5,286046998.7,N
1673089695.3,286047000.6,N
1673089715.2,286047002.7,Y
1673089735.0,286047001.1,P
1673089735.9,286047001.1,N
1673089755.7,286047000.2,N
1673089775.6,286047002.4,Y
1673089795.4,286047000.6,P
1673089815.2,286047000.1,N
1673089835.1,286047000.8,P
1673089836.0,286047000.8,Y
1673089855.8,286047001.0,P
1673089875.7,286046999.9,N
1673089895.5,286047002.3,P
1673089915.3,286047001.9,N
1673089935.2,286047002.0,N
1673089955.9,286047001.6,N
1673089975.7,286046999.7,N
1673089995.6,286047002.8,N
1673090015.4,286046999.8,N
1673090035.2,286047000.1,N
1673090055.1,286047002.3,N
1673090056.0,286047002.3,N
1673090075.8,286047001.9,N
1673090095.6,286047001.3,N
1673090115.5,286047004.3,Y
1673090135.3,286047002.2,P
1673090155.1,286047002.5,P
1673090175.9,286047002.6,P
1673090195.7,286047002.0,Y
1673090215.5,286047002.3,P
1673090235.4,286047002.8,P
1673090255.2,286047000.4,N
1673090275.0,286047000.3,N
1673090275.9,286047000.3,N
1673090295.8,286047000.2,N
1673090315.6,286047002.5,N
1673090335.4,286047002.4,N
1673090355.3,286047000.0,N
1673090375.1,286047000.1,N
1673090376.0,286047000.1,N
1673090395.8,286046999.9,N
1673090415.7,286047000.2,N
1673090435.5,286046999.9,N
1673090455.3,286047000.1,N
1673090475.2,286047000.5,N
1673090495.9,286047000.4,N
1673090515.7,286047000.2,N
1673090535.6,286047000.3,N
1673090555.4,286047000.5,N
1673090575.2,286047002.7,N
1673090595.1,286047001.6,N
1673090596.0,286047001.6,N
1673090615.8,286047000.2,N
1673090635.6,286047001.1,N
1673090655.5,286047000.9,N
1673090675.3,286046999.3,N
1673090695.1,286046998.9,N
1673090715.9,286046998.3,N
1673090735.7,286046998.1,N
1673090755.5,286046998.6,N
1673090775.4,286046998.1,N
1673090795.2,286047000.9,N
1673090815.0,286046998.3,N
1673090815.9,286046998.3,N
1673090835.8,286047001.1,N
1673090855.6,286046999.0,N
1673090875.4,286046998.3,N
1673090895.3,286046999.5,N
1673090915.1,286046999.1,N
1673090916.0,286046999.1,N
1673090935.8,286046997.2,N
1673090955.7,286046994.9,Y
1673090975.5,286046996.9,P
1673090995.3,286046997.2,N
1673091015.2,286046995.1,P
1673091035.9,286046998.0,N
1673091055.7,286046997.6,N
1673091075.6,286046997.3,N
1673091095.4,286046996.7,N
1673091115.2,286046999.6,N
1673091135.1,286046999.5,N
1673091136.0,286046999.5,N
1673091155.8,286046997.0,N
1673091175.6,286046997.6,N
1673091195.5,286046997.5,N
1673091215.3,286046995.2,Y
1673091235.1,286047000.6,P
1673091255.9,286046998.7,N
1673091275.7,286047001.2,N
1673091295.5,286047000.7,N
1673091315.4,286047001.1,N
1673091335.2,286047000.8,N
1673091355.0,286046998.2,N
1673091355.9,286046998.2,N
1673091375.8,286047000.5,N
1673091395.6,286046998.3,N
1673091415.4,286046998.6,N
1673091435.3,286046998.7,N
1673091455.1,286046999.0,N
1673091456.0,286046999.0,N
1673091475.8,286046998.2,N
1673091495.7,286047000.5,N
1673091515.5,286047000.7,N
1673091535.3,286047000.3,N
1673091555.2,286047000.4,N
1673091575.9,286047000.0,N
1673091595.7,286047000.8,N
1673091615.6,286046998.2,N
1673091635.4,286046999.8,N
1673091655.2,286046998.5,N
1673091675.1,286047000.5,N
1673091676.0,286047000.5,N
1673091695.8,286047001.0,N
1673091715.6,286047002.8,N
1673091735.5,286047000.1,N
1673091755.3,286047000.3,N
1673091775.1,286046999.8,N
1673091795.9,286047002.3,N
1673091815.7,286047001.5,N
1673091835.5,286047002.1,N
1673091855.4,286047002.5,N
1673091875.2,286047001.3,N
1673091895.0,286047001.3,N
1673091895.9,286047001.3,N
1673091915.8,286047003.4,N
1673091935.6,286047003.2,N
1673091955.4,286047004.1,N
1673091975.3,286047004.3,N
1673091995.1,286047001.7,N
1673091996.0,286047001.7,N
1673092015.8,286047003.2,N
1673092035.7,286047003.0,N
1673092055.5,286047001.8,N
1673092075.3,286047001.8,N
1673092095.2,286047004.4,N
1673092115.9,286047004.3,N
1673092135.7,286047002.0,N
1673092155.6,286047002.3,N
1673092175.4,286047002.5,N
1673092195.2,286047003.6,N
1673092215.1,286047001.3,N
1673092216.0,286047001.3,N
1673092235.8,286047001.5,N
1673092255.6,286047001.8,N
1673092275.5,286047002.3,N
1673092295.3,286047002.6,N
1673092315.1,286047002.5,N
1673092335.9,286047003.5,Y
1673092355.7,286047002.5,P
1673092375.5,286047002.6,P
1673092395.4,286047000.2,N
1673092415.2,286047001.2,N
1673092435.0,286047000.6,N
1673092435.9,286047000.6,N
1673092455.8,286047001.4,N
1673092475.6,286047004.3,Y
1673092495.4,286047001.7,P
1673092515.3,286047004.1,P
1673092535.1,286047004.2,P
1673092536.0,286047004.2,Y
1673092555.8,286047000.8,P
1673092575.7,286046998.2,N
1673092595.5,286046998.6,N
1673092615.3,286047001.1,N
1673092635.2,286046998.5,N
1673092655.9,286046998.3,N
1673092675.7,286046998.8,N
1673092695.6,286047000.6,N
1673092715.4,286046998.3,N
1673092735.2,286046998.8,N
1673092755.1,286046999.0,N
1673092756.0,286046999.0,N
1673092775.8,286046998.9,N
1673092795.6,286046998.4,N
